Showing default

HERMES 4, 63833

Orbit data source: Space-Track

HERMES 4, 63833 is a payload satellite owned by ASI (IT) in SSO that was launched on Sat, 15 Mar 2025 UTC via an FALCON 9 launch vehicle from the Air Force Western Test Range (AFWTR). Payload-class satellites include a variety of spacecraft equipped with specific instruments for various scientific and technological missions. These include communications satellites like Starlink; space stations such as the ISS; scientific satellites like the Hubble; Earth observation satellites from companies like Planet Labs, Umbra, and HawkEye 360; GPS; miniature CubeSats for education and research; and military/defense satellites.

Loading next visibility...
Identifier
63833, 2025-052BP
Orbit
SSO
Country
Flag of ITIT
Related business
Manufacturer
MILANP/INAFI
Mission
Operational Civil Astronomy
Bus & Motor
CUBESAT 3U, Unknown motor
Mass
5 kg wet, 5 kg dry
Launch date (UTC)
2025-03-15 (7 months ago)
Launch vehicle
FALCON 9
Launch site
Air Force Western Test Range (AFWTR)
Object type
Payload
Rocket body
Debris
Shape & HBR
Box, 14.5 m
Radar Cross Section
0.035 m², Small (<0.1 m²)

Expand to show TLE details & history
Last TLE update: 12 hours ago

TLE from 12 hours ago
0 HERMES 4
1 63833U 25052BP  25298.65184498  .00020556  00000-0  93108-3 0  9990
2 63833  97.4110 189.8458 0002776   1.8356 358.2889 15.20895001 34185
Epoch: 2025-10-25T15:38Z
TLE epoch observation values (Epoch: 2025-10-25T15:38:39.406Z)
Latitude
-0.00004°
Longitude
-79.09771°
Altitude
504.321 km
Speed
7.613 km/s
True Right ascension
12h 39m 22s
True Declination
0° 00' 00"
Sunlit
Object was in daylight at epoch
Visualization orbit readout
Latitude
Unknown
Longitude
Unknown
Altitude
Unknown
Speed
Unknown
Apparent Right ascension
Unknown
Apparent Declination
Unknown
Sunlit
N/A
Visualization observer readout
Local Sidereal Time
23:08:24
Azimuth
Unknown
Elevation
Unknown
Doppler factor
Unknown
Orbital elements
Apogee altitude
502.014 km
Perigee altitude
498.195 km
Semi-major axis
6,878.242 km
Eccentricity
0.00028
Inclination
97.411°
RAAN
189.8458°
Arg. of periapsis
1.8356°
True anomaly
358.28795°
Mean anomaly
358.2889°
Eccentric anomaly
358.28842°
Mean motion
3.80476 °/min
Orbital period
94.62 mins
BSTAR
0.00093108
Loading maneuver chart data...
Computing Atmospheric mass density...
Loading historical data...
Loading historical data...
Loading historical data...
Loading historical data...
Loading historical data...
Loading historical data...
Loading historical data...

Documentation

Showing up to 5 results
|